Hourly Data Report for October 08, 2016

All times are specified in Local Standard Time (LST). Add 1 hour to adjust for Daylight Saving Time where and when it is observed.

KITCHENER/WATERLOO
ONTARIO

43°27'39.000" N
80°22'43.000" W
321.60 m
6144239
71368
YKF

Download Data

Hourly Data (October 2016)
Hourly Data Report for October 8, 2016
Temp Definition
°C
Dew Point Temp Definition
°C
Rel Hum Definition
%
Wind Dir Definition
10's deg

Wind Spd Definition
km/h
Visibility Definition
km
Stn Press Definition
kPa
Hmdx Definition


Wind Chill Definition


Weather Definition


TIME
00:00 Legend Double Dagger 16.4 14.6 89 19 15 16.1 97.74     LegendNANA
01:00 Legend Double Dagger 16.9 15.7 93 24 13 16.1 97.76     LegendNANA
02:00 Legend Double Dagger 16.7 15.4 92 23 8 14.5 97.78     LegendNANA
03:00 Legend Double Dagger 15.3 13.7 90 31 18 16.1 97.79     LegendNANA
04:00 Legend Double Dagger 13.9 12.3 90 32 17 16.1 97.83     LegendNANA
05:00 Legend Double Dagger 12.1 10.7 91 32 17 16.1 97.89     LegendNANA
06:00 Legend Double Dagger 11.9 10.8 93 30 8 16.1 97.91     LegendNANA
07:00 Legend Double Dagger 11.0 9.9 93 30 15 16.1 97.98     LegendNANA
08:00 Legend Double Dagger 12.0 10.0 87 30 15 16.1 98.01     LegendNANA
09:00 Legend Double Dagger 12.3 8.9 80 30 21 16.1 98.04     LegendNANA
10:00 Legend Double Dagger 13.9 8.1 68 28 26 16.1 98.01     LegendNANA
11:00 Legend Double Dagger 14.4 7.2 62 29 22 16.1 98.02     LegendNANA
12:00 Legend Double Dagger 14.7 4.8 51 28 28 16.1 98.04     LegendNANA
13:00 Legend Double Dagger 15.0 5.2 52 25 30 16.1 98.02     LegendNANA
14:00 Legend Double Dagger 13.0 4.9 58 28 22 16.1 98.05     LegendNANA
15:00 Legend Double Dagger 11.5 4.2 61 29 24 16.1 98.07     LegendNANA
16:00 Legend Double Dagger 10.7 3.8 62 30 24 16.1 98.10     LegendNANA
17:00 Legend Double Dagger 10.1 3.2 62 29 28 16.1 98.18     LegendNANA
18:00 Legend Double Dagger 9.7 2.9 62 29 26 16.1 98.23     LegendNANA
19:00 Legend Double Dagger 9.1 2.9 65 29 24 16.1 98.27     LegendNANA
20:00 Legend Double Dagger 8.3 3.2 70 30 13 16.1 98.34     LegendNANA
21:00 Legend Double Dagger 7.1 3.7 79 30 5 16.1 98.41     LegendNANA
22:00 Legend Double Dagger 6.8 3.7 81 28 9 16.1 98.43     LegendNANA
23:00 Legend Double Dagger 5.6 3.3 85 27 5 16.1 98.43     LegendNANA

Notes on Data Quality.

Legend

  • E = Estimated
  • M = Missing
  • NA = Not Available
  • ‡ = Partner data that is not subject to review by the National Climate Archives
Date modified: